Year,Month,Day,Hour,Minute,Value (Times are PST for temperature in C)
2015,01,16,00,00,8.10
2015,01,16,00,01,8.10
2015,01,16,00,02,8.10
2015,01,16,00,03,8.10
2015,01,16,00,04,8.10
2015,01,16,00,05,8.10
2015,01,16,00,06,8.10
2015,01,16,00,07,8.10
2015,01,16,00,08,8.10
2015,01,16,00,09,8.10
2015,01,16,00,10,8.10
2015,01,16,00,11,8.10
2015,01,16,00,12,8.10
2015,01,16,00,13,8.10
2015,01,16,00,14,8.10
2015,01,16,00,15,8.10
2015,01,16,00,16,8.20
2015,01,16,00,17,8.20
2015,01,16,00,18,8.20
2015,01,16,00,19,8.20
2015,01,16,00,20,8.20
2015,01,16,00,21,8.30
2015,01,16,00,22,8.30
2015,01,16,00,23,8.30
2015,01,16,00,24,8.30
2015,01,16,00,25,8.30
2015,01,16,00,26,8.20
2015,01,16,00,27,8.20
2015,01,16,00,28,8.20
2015,01,16,00,29,8.20
2015,01,16,00,30,8.20
2015,01,16,00,31,8.20
2015,01,16,00,32,8.20
2015,01,16,00,33,8.20
2015,01,16,00,34,8.10
2015,01,16,00,35,8.10
2015,01,16,00,36,8.20
2015,01,16,00,37,8.20
2015,01,16,00,38,8.20
2015,01,16,00,39,8.20
2015,01,16,00,40,8.20
2015,01,16,00,41,8.20
2015,01,16,00,42,8.20
2015,01,16,00,43,8.20
2015,01,16,00,44,8.30
2015,01,16,00,45,8.30
2015,01,16,00,46,8.40
2015,01,16,00,47,8.40
2015,01,16,00,48,8.40
2015,01,16,00,49,8.40
2015,01,16,00,50,8.40
2015,01,16,00,51,8.40
2015,01,16,00,52,8.40
2015,01,16,00,53,8.40
2015,01,16,00,54,8.40
2015,01,16,00,55,8.40
2015,01,16,00,56,8.40
2015,01,16,00,57,8.40
2015,01,16,00,58,8.40
2015,01,16,00,59,8.40
2015,01,16,01,00,8.40
2015,01,16,01,01,8.40
2015,01,16,01,02,8.40
2015,01,16,01,03,8.40
2015,01,16,01,04,8.30
2015,01,16,01,05,8.30
2015,01,16,01,06,8.30
2015,01,16,01,07,8.30
2015,01,16,01,08,8.30
2015,01,16,01,09,8.30
2015,01,16,01,10,8.30
2015,01,16,01,11,8.40
2015,01,16,01,12,8.40
2015,01,16,01,13,8.40
2015,01,16,01,14,8.40
2015,01,16,01,15,8.40
2015,01,16,01,16,8.40
2015,01,16,01,17,8.40
2015,01,16,01,18,8.30
2015,01,16,01,19,8.30
2015,01,16,01,20,8.30
2015,01,16,01,21,8.30
2015,01,16,01,22,8.30
2015,01,16,01,23,8.30
2015,01,16,01,24,8.30
2015,01,16,01,25,8.40
2015,01,16,01,26,8.40
2015,01,16,01,27,8.50
2015,01,16,01,28,8.50
2015,01,16,01,29,8.60
2015,01,16,01,30,8.70
2015,01,16,01,31,8.70
2015,01,16,01,32,8.70
2015,01,16,01,33,8.70
2015,01,16,01,34,8.70
2015,01,16,01,35,8.60
2015,01,16,01,36,8.60
2015,01,16,01,37,8.60
2015,01,16,01,38,8.60
2015,01,16,01,39,8.60
2015,01,16,01,40,8.70
2015,01,16,01,41,8.80
2015,01,16,01,42,8.80
2015,01,16,01,43,8.90
2015,01,16,01,44,9.00
2015,01,16,01,45,9.00
2015,01,16,01,46,9.00
2015,01,16,01,47,9.00
2015,01,16,01,48,9.10
2015,01,16,01,49,9.10
2015,01,16,01,50,9.10
2015,01,16,01,51,9.20
2015,01,16,01,52,9.20
2015,01,16,01,53,9.20
2015,01,16,01,54,9.20
2015,01,16,01,55,9.20
2015,01,16,01,56,9.10
2015,01,16,01,57,9.00
2015,01,16,01,58,8.90
2015,01,16,01,59,8.80
2015,01,16,02,00,8.70
2015,01,16,02,01,8.60
2015,01,16,02,02,8.60
2015,01,16,02,03,8.50
2015,01,16,02,04,8.40
2015,01,16,02,05,8.40
2015,01,16,02,06,8.30
2015,01,16,02,07,8.30
2015,01,16,02,08,8.30
2015,01,16,02,09,8.30
2015,01,16,02,10,8.30
2015,01,16,02,11,8.30
2015,01,16,02,12,8.30
2015,01,16,02,13,8.30
2015,01,16,02,14,8.30
2015,01,16,02,15,8.30
2015,01,16,02,16,8.30
2015,01,16,02,17,8.30
2015,01,16,02,18,8.30
2015,01,16,02,19,8.30
2015,01,16,02,20,8.30
2015,01,16,02,21,8.30
2015,01,16,02,22,8.30
2015,01,16,02,23,8.30
2015,01,16,02,24,8.30
2015,01,16,02,25,8.30
2015,01,16,02,26,8.30
2015,01,16,02,27,8.30
2015,01,16,02,28,8.30
2015,01,16,02,29,8.30
2015,01,16,02,30,8.30
2015,01,16,02,31,8.30
2015,01,16,02,32,8.30
2015,01,16,02,33,8.30
2015,01,16,02,34,8.30
2015,01,16,02,35,8.40
2015,01,16,02,36,8.40
2015,01,16,02,37,8.40
2015,01,16,02,38,8.40
2015,01,16,02,39,8.40
2015,01,16,02,40,8.40
2015,01,16,02,41,8.50
2015,01,16,02,42,8.50
2015,01,16,02,43,8.50
2015,01,16,02,44,8.50
2015,01,16,02,45,8.60
2015,01,16,02,46,8.60
2015,01,16,02,47,8.70
2015,01,16,02,48,8.70
2015,01,16,02,49,8.70
2015,01,16,02,50,8.70
2015,01,16,02,51,8.80
2015,01,16,02,52,8.80
2015,01,16,02,53,8.80
2015,01,16,02,54,8.80
2015,01,16,02,55,8.90
2015,01,16,02,56,9.00
2015,01,16,02,57,9.00
2015,01,16,02,58,9.00
2015,01,16,02,59,9.00
2015,01,16,03,00,9.00
2015,01,16,03,01,8.90
2015,01,16,03,02,8.90
2015,01,16,03,03,8.90
2015,01,16,03,04,8.80
2015,01,16,03,05,8.80
2015,01,16,03,06,8.80
2015,01,16,03,07,8.70
2015,01,16,03,08,8.70
2015,01,16,03,09,8.70
2015,01,16,03,10,8.60
2015,01,16,03,11,8.60
2015,01,16,03,12,8.60
2015,01,16,03,13,8.50
2015,01,16,03,14,8.50
2015,01,16,03,15,8.50
2015,01,16,03,16,8.40
2015,01,16,03,17,8.40
2015,01,16,03,18,8.40
2015,01,16,03,19,8.40
2015,01,16,03,20,8.30
2015,01,16,03,21,8.30
2015,01,16,03,22,8.30
2015,01,16,03,23,8.30
2015,01,16,03,24,8.30
2015,01,16,03,25,8.20
2015,01,16,03,26,8.20
2015,01,16,03,27,8.20
2015,01,16,03,28,8.20
2015,01,16,03,29,8.20
2015,01,16,03,30,8.20
2015,01,16,03,31,8.20
2015,01,16,03,32,8.20
2015,01,16,03,33,8.20
2015,01,16,03,34,8.20
2015,01,16,03,35,8.20
2015,01,16,03,36,8.20
2015,01,16,03,37,8.20
2015,01,16,03,38,8.20
2015,01,16,03,39,8.10
2015,01,16,03,40,8.10
2015,01,16,03,41,8.10
2015,01,16,03,42,8.10
2015,01,16,03,43,8.10
2015,01,16,03,44,8.10
2015,01,16,03,45,8.10
2015,01,16,03,46,8.10
2015,01,16,03,47,8.10
2015,01,16,03,48,8.10
2015,01,16,03,49,8.10
2015,01,16,03,50,8.10
2015,01,16,03,51,8.10
2015,01,16,03,52,8.10
2015,01,16,03,53,8.10
2015,01,16,03,54,8.10
2015,01,16,03,55,8.10
2015,01,16,03,56,8.10
2015,01,16,03,57,8.10
2015,01,16,03,58,8.10
2015,01,16,03,59,8.10
2015,01,16,04,00,8.10
2015,01,16,04,01,8.10
2015,01,16,04,02,8.10
2015,01,16,04,03,8.10
2015,01,16,04,04,8.10
2015,01,16,04,05,8.10
2015,01,16,04,06,8.10
2015,01,16,04,07,8.10
2015,01,16,04,08,8.10
2015,01,16,04,09,8.10
2015,01,16,04,10,8.10
2015,01,16,04,11,8.10
2015,01,16,04,12,8.10
2015,01,16,04,13,8.10
2015,01,16,04,14,8.10
2015,01,16,04,15,8.10
2015,01,16,04,16,8.10
2015,01,16,04,17,8.10
2015,01,16,04,18,8.10
2015,01,16,04,19,8.10
2015,01,16,04,20,8.10
2015,01,16,04,21,8.10
2015,01,16,04,22,8.10
2015,01,16,04,23,8.10
2015,01,16,04,24,8.10
2015,01,16,04,25,8.10
2015,01,16,04,26,8.10
2015,01,16,04,27,8.10
2015,01,16,04,28,8.10
2015,01,16,04,29,8.20
2015,01,16,04,30,8.20
2015,01,16,04,31,8.20
2015,01,16,04,32,8.20
2015,01,16,04,33,8.20
2015,01,16,04,34,8.20
2015,01,16,04,35,8.20
2015,01,16,04,36,8.20
2015,01,16,04,37,8.20
2015,01,16,04,38,8.20
2015,01,16,04,39,8.20
2015,01,16,04,40,8.20
2015,01,16,04,41,8.20
2015,01,16,04,42,8.20
2015,01,16,04,43,8.20
2015,01,16,04,44,8.20
2015,01,16,04,45,8.20
2015,01,16,04,46,8.20
2015,01,16,04,47,8.20
2015,01,16,04,48,8.30
2015,01,16,04,49,8.20
2015,01,16,04,50,8.30
2015,01,16,04,51,8.30
2015,01,16,04,52,8.30
2015,01,16,04,53,8.30
2015,01,16,04,54,8.30
2015,01,16,04,55,8.30
2015,01,16,04,56,8.30
2015,01,16,04,57,8.30
2015,01,16,04,58,8.30
2015,01,16,04,59,8.30
2015,01,16,05,00,8.30
2015,01,16,05,01,8.30
2015,01,16,05,02,8.30
2015,01,16,05,03,8.30
2015,01,16,05,04,8.30
2015,01,16,05,05,8.30
2015,01,16,05,06,8.30
2015,01,16,05,07,8.30
2015,01,16,05,08,8.30
2015,01,16,05,09,8.30
2015,01,16,05,10,8.30
2015,01,16,05,11,8.30
2015,01,16,05,12,8.30
2015,01,16,05,13,8.30
2015,01,16,05,14,8.30
2015,01,16,05,15,8.30
2015,01,16,05,16,8.30
2015,01,16,05,17,8.30
2015,01,16,05,18,8.30
2015,01,16,05,19,8.30
2015,01,16,05,20,8.30
2015,01,16,05,21,8.30
2015,01,16,05,22,8.30
2015,01,16,05,23,8.20
2015,01,16,05,24,8.20
2015,01,16,05,25,8.20
2015,01,16,05,26,8.20
2015,01,16,05,27,8.20
2015,01,16,05,28,8.20
2015,01,16,05,29,8.20
2015,01,16,05,30,8.20
2015,01,16,05,31,8.20
2015,01,16,05,32,8.10
2015,01,16,05,33,8.10
2015,01,16,05,34,8.10
2015,01,16,05,35,8.10
2015,01,16,05,36,8.10
2015,01,16,05,37,8.10
2015,01,16,05,38,8.10
2015,01,16,05,39,8.10
2015,01,16,05,40,8.10
2015,01,16,05,41,8.10
2015,01,16,05,42,8.10
2015,01,16,05,43,8.10
2015,01,16,05,44,8.10
2015,01,16,05,45,8.10
2015,01,16,05,46,8.10
2015,01,16,05,47,8.00
2015,01,16,05,48,8.00
2015,01,16,05,49,8.00
2015,01,16,05,50,8.00
2015,01,16,05,51,8.00
2015,01,16,05,52,8.00
2015,01,16,05,53,7.90
2015,01,16,05,54,7.90
2015,01,16,05,55,7.90
2015,01,16,05,56,7.90
2015,01,16,05,57,7.90
2015,01,16,05,58,7.90
2015,01,16,05,59,7.90
2015,01,16,06,00,7.90
2015,01,16,06,01,7.90
2015,01,16,06,02,7.90
2015,01,16,06,03,7.90
2015,01,16,06,04,7.90
2015,01,16,06,05,7.80
2015,01,16,06,06,7.80
2015,01,16,06,07,7.80
2015,01,16,06,08,7.80
2015,01,16,06,09,7.80
2015,01,16,06,10,7.80
2015,01,16,06,11,7.80
2015,01,16,06,12,7.80
2015,01,16,06,13,7.80
2015,01,16,06,14,7.80
2015,01,16,06,15,7.80
2015,01,16,06,16,7.80
2015,01,16,06,17,7.80
2015,01,16,06,18,7.80
2015,01,16,06,19,7.80
2015,01,16,06,20,7.70
2015,01,16,06,21,7.70
2015,01,16,06,22,7.70
2015,01,16,06,23,7.70
2015,01,16,06,24,7.70
2015,01,16,06,25,7.70
2015,01,16,06,26,7.70
2015,01,16,06,27,7.70
2015,01,16,06,28,7.70
2015,01,16,06,29,7.70
2015,01,16,06,30,7.70
2015,01,16,06,31,7.70
2015,01,16,06,32,7.70
2015,01,16,06,33,7.70
2015,01,16,06,34,7.70
2015,01,16,06,35,7.70
2015,01,16,06,36,7.70
2015,01,16,06,37,7.70
2015,01,16,06,38,7.70
2015,01,16,06,39,7.70
2015,01,16,06,40,7.70
2015,01,16,06,41,7.70
2015,01,16,06,42,7.70
2015,01,16,06,43,7.70
2015,01,16,06,44,7.60
2015,01,16,06,45,7.60
2015,01,16,06,46,7.60
2015,01,16,06,47,7.60
2015,01,16,06,48,7.60
2015,01,16,06,49,7.60
2015,01,16,06,50,7.60
2015,01,16,06,51,7.60
2015,01,16,06,52,7.60
2015,01,16,06,53,7.50
2015,01,16,06,54,7.50
2015,01,16,06,55,7.50
2015,01,16,06,56,7.50
2015,01,16,06,57,7.50
2015,01,16,06,58,7.50
2015,01,16,06,59,7.50
2015,01,16,07,00,7.50
2015,01,16,07,01,7.50
2015,01,16,07,02,7.50
2015,01,16,07,03,7.60
2015,01,16,07,04,7.60
2015,01,16,07,05,7.60
2015,01,16,07,06,7.60
2015,01,16,07,07,7.60
2015,01,16,07,08,7.60
2015,01,16,07,09,7.50
2015,01,16,07,10,7.50
2015,01,16,07,11,7.50
2015,01,16,07,12,7.50
2015,01,16,07,13,7.40
2015,01,16,07,14,7.40
2015,01,16,07,15,7.40
2015,01,16,07,16,7.40
2015,01,16,07,17,7.40
2015,01,16,07,18,7.30
2015,01,16,07,19,7.30
2015,01,16,07,20,7.30
2015,01,16,07,21,7.30
2015,01,16,07,22,7.40
2015,01,16,07,23,7.30
2015,01,16,07,24,7.30
2015,01,16,07,25,7.30
2015,01,16,07,26,7.30
2015,01,16,07,27,7.30
2015,01,16,07,28,7.40
2015,01,16,07,29,7.40
2015,01,16,07,30,7.40
2015,01,16,07,31,7.40
2015,01,16,07,32,7.40
2015,01,16,07,33,7.40
2015,01,16,07,34,7.40
2015,01,16,07,35,7.50
2015,01,16,07,36,7.50
2015,01,16,07,37,7.50
2015,01,16,07,38,7.50
2015,01,16,07,39,7.50
2015,01,16,07,40,7.50
2015,01,16,07,41,7.50
2015,01,16,07,42,7.50
2015,01,16,07,43,7.50
2015,01,16,07,44,7.50
2015,01,16,07,45,7.50
2015,01,16,07,46,7.50
2015,01,16,07,47,7.50
2015,01,16,07,48,7.50
2015,01,16,07,49,7.50
2015,01,16,07,50,7.50
2015,01,16,07,51,7.60
2015,01,16,07,52,7.60
2015,01,16,07,53,7.60
2015,01,16,07,54,7.60
2015,01,16,07,55,7.60
2015,01,16,07,56,7.60
2015,01,16,07,57,7.60
2015,01,16,07,58,7.60
2015,01,16,07,59,7.60
2015,01,16,08,00,7.60
2015,01,16,08,01,7.70
2015,01,16,08,02,7.70
2015,01,16,08,03,7.70
2015,01,16,08,04,7.70
2015,01,16,08,05,7.70
2015,01,16,08,06,7.70
2015,01,16,08,07,7.70
2015,01,16,08,08,7.70
2015,01,16,08,09,7.70
2015,01,16,08,10,7.70
2015,01,16,08,11,7.70
2015,01,16,08,12,7.70
2015,01,16,08,13,7.70
2015,01,16,08,14,7.70
2015,01,16,08,15,7.70
2015,01,16,08,16,7.70
2015,01,16,08,17,7.70
2015,01,16,08,18,7.70
2015,01,16,08,19,7.70
2015,01,16,08,20,7.70
2015,01,16,08,21,7.70
2015,01,16,08,22,7.70
2015,01,16,08,23,7.70
2015,01,16,08,24,7.70
2015,01,16,08,25,7.70
2015,01,16,08,26,7.70
2015,01,16,08,27,7.70
2015,01,16,08,28,7.70
2015,01,16,08,29,7.70
2015,01,16,08,30,7.70
2015,01,16,08,31,7.70
2015,01,16,08,32,7.70
2015,01,16,08,33,7.70
2015,01,16,08,34,7.70
2015,01,16,08,35,7.70
2015,01,16,08,36,7.70
2015,01,16,08,37,7.70
2015,01,16,08,38,7.70
2015,01,16,08,39,7.70
2015,01,16,08,40,7.70
2015,01,16,08,41,7.80
2015,01,16,08,42,7.80
2015,01,16,08,43,7.80
2015,01,16,08,44,7.80
2015,01,16,08,45,7.80
2015,01,16,08,46,7.80
2015,01,16,08,47,7.80
2015,01,16,08,48,7.80
2015,01,16,08,49,7.80
2015,01,16,08,50,7.80
2015,01,16,08,51,7.80
2015,01,16,08,52,7.80
2015,01,16,08,53,7.80
2015,01,16,08,54,7.80
